Hourly Data Report for October 02, 2017

All times are specified in Local Standard Time (LST). Add 1 hour to adjust for Daylight Saving Time where and when it is observed.

PORTAGE SOUTHPORT
MANITOBA

49°54'11.300" N
98°17'02.900" W
272.70 m
5012324
71851
WPG

Download Data

Hourly Data (October 2017)
Hourly Data Report for October 2, 2017
Temp Definition
°C
Dew Point Temp Definition
°C
Rel Hum Definition
%
Wind Dir Definition
10's deg

Wind Spd Definition
km/h
Visibility Definition
km
Stn Press Definition
kPa
Hmdx Definition


Wind Chill Definition


Weather Definition


TIME
00:00 14.2 13.3 95 16 18   96.98     LegendNANA
01:00 14.1 13.4 96 15 8   96.88     LegendNANA
02:00 13.7 12.9 95 14 8   96.89     LegendNANA
03:00 13.5 13.0 97 12 9   96.88     LegendNANA
04:00 14.0 13.3 96 16 7   96.86     LegendNANA
05:00 14.1 13.5 96 17 8   96.86     LegendNANA
06:00 12.5 11.3 93 22 11   96.97     LegendNANA
07:00 12.2 10.3 88 22 13   97.01     LegendNANA
08:00 11.9 9.2 84 21 13   97.07     LegendNANA
09:00 12.5 8.7 77 23 14   97.14     LegendNANA
10:00 12.5 7.8 74 22 18   97.21     LegendNANA
11:00 11.6 6.9 73 22 19   97.29     LegendNANA
12:00 12.6 6.3 66 22 17   97.35     LegendNANA
13:00 14.0 5.9 58 23 17   97.37     LegendNANA
14:00 14.9 6.1 56 22 13   97.43     LegendNANA
15:00 15.1 5.1 51 22 16   97.48     LegendNANA
16:00 14.7 4.2 49 21 19   97.56     LegendNANA
17:00 13.9 4.0 51 22 13   97.62     LegendNANA
18:00 13.0 4.4 56 20 7   97.67     LegendNANA
19:00 9.9 4.8 70 18 5   97.77     LegendNANA
20:00 10.0 4.3 67 21 8   97.89     LegendNANA
21:00 9.8 3.6 65 22 7   97.97     LegendNANA
22:00 6.9 3.8 81 19 3   97.96     LegendNANA
23:00 4.8 2.8 87 19 3   97.94     LegendNANA

Notes on Data Quality.

Legend

  • E = Estimated
  • M = Missing
  • NA = Not Available
  • ‡ = Partner data that is not subject to review by the National Climate Archives
Date modified: